Location: Burjasot
(39.5167°N, 0.4167°W)
Time: 06:42:16
(UTC+02:00)

ISS - Pass Details

Date: 26 May 2019
Orbit: 407 x 419 km, 51.6° (Epoch: 26 June)

Event Time Altitude Azimuth Distance (km) Brightness Sun altitude
Rises 00:55:33 0° 315° (NW) 2,363 1.0 -27.7°
Reaches altitude 10° 00:58:05 10° 334° (NNW) 1,500 0.0 -27.8°
Enters shadow 01:00:05 18° 10° (N) 1,095 -1.0 -27.9°
